Flag for United Kingdom Weather past 2 weeks in Leicester, England, United Kingdom

Now
73 °F

Sunny.


Feels Like: 77 °F
Forecast: 62 / 87 °F
Wind: 9 mph from Southeast

Location: East Midlands

Current Time: Jun 30, 2015 at 10:53:43 PM

Latest Report: Jun 30, 2015 at 9:50 PM


Visibility: 10 mi

Pressure: 30.01 "Hg

Humidity: 50%

Dew point: 54 °F

Location of LeicesterLocation

Historic Weather in Leicester — Graph

°F

Leicester temperature yesterday

Maximum temperature yesterday: 73 °F (at 5:50 PM)
Minimum temperature yesterday: 54 °F (at 4:50 AM)
Average temperature yesterday: 63 °F

Past Weeks' High & Low Weather Summary

 TemperatureHumidityPressure
High84 °F (Jun 30, 3:50 PM)100% (Jun 20, 9:20 AM)30.27 "Hg (Jun 20, 9:20 AM)
Low48 °F (Jun 19, 3:20 AM)33% (Jun 30, 3:50 PM)29.80 "Hg (Jun 22, 7:50 AM)
Average61 °F72%30.08 "Hg
* Reported Jun 15 9:20 PM — Jun 30 9:20 PM, Leicester, Weather by CustomWeather, © 2015

Note: Actual official high and low records may vary slightly from our data, if they occured in-between our weather recording intervals... More about our weather records

Advertising

Leicester weather history for previous 24 hours

 ConditionsComfort  
Time TempWeatherWind HumidityBarometerVisibility
9:20 PM
Tue, Jun 30
75 °FSunny.9 mph47%30.01 "Hg10 mi
8:50 PM77 °FSunny.9 mph42%30.01 "Hg10 mi
7:50 PM79 °FSunny.10 mph37%29.98 "Hg10 mi
7:20 PM81 °FSunny.13 mph34%29.98 "Hg10 mi
6:50 PM82 °FSunny.12 mph35%29.98 "Hg10 mi
5:50 PM82 °FSunny.10 mph35%29.98 "Hg10 mi
5:20 PM82 °FSunny.13 mph35%30.01 "Hg10 mi
4:50 PM84 °FPassing clouds.12 mph33%30.01 "HgN/A
3:50 PM84 °FPassing clouds.9 mph33%30.04 "HgN/A
3:20 PM82 °FPassing clouds.10 mph37%30.04 "HgN/A
2:50 PM82 °FPassing clouds.9 mph37%30.04 "HgN/A
1:50 PM81 °FPassing clouds.9 mph37%30.07 "HgN/A
1:20 PM81 °FPassing clouds.10 mph37%30.07 "HgN/A
12:50 PM81 °FPassing clouds.10 mph37%30.07 "HgN/A
11:50 AM79 °FPassing clouds.8 mph37%30.09 "HgN/A
11:20 AM77 °FSunny.10 mph36%30.09 "Hg10 mi
10:50 AM75 °FPassing clouds.10 mph39%30.09 "HgN/A
10:20 AM75 °FPassing clouds.9 mph44%30.09 "HgN/A
9:50 AM73 °FPassing clouds.9 mph50%30.09 "HgN/A
9:20 AM72 °FPassing clouds.10 mph50%30.09 "HgN/A
8:50 AM72 °FPassing clouds.7 mph50%30.09 "HgN/A
8:20 AM68 °FPassing clouds.5 mph69%30.09 "HgN/A
7:50 AM66 °FSunny.3 mph68%30.09 "Hg10 mi
7:20 AM64 °FPassing clouds.5 mph68%30.12 "HgN/A
6:50 AM61 °FSunny.3 mph77%30.12 "Hg10 mi
6:20 AM59 °FSunny.5 mph82%30.12 "Hg10 mi
5:50 AM61 °FSunny.3 mph77%30.12 "Hg10 mi
5:20 AM59 °FPassing clouds.5 mph77%30.12 "HgN/A
4:50 AM59 °FClear.5 mph77%30.12 "Hg10 mi
4:20 AM59 °FClear.5 mph77%30.12 "Hg10 mi
3:50 AM61 °FPassing clouds.6 mph72%30.12 "HgN/A
3:20 AM61 °FClear.6 mph72%30.12 "Hg10 mi
2:50 AM61 °FClear.7 mph72%30.12 "Hg10 mi
2:20 AM61 °FClear.7 mph72%30.12 "Hg10 mi
1:50 AM61 °FPassing clouds.7 mph72%30.15 "HgN/A
1:20 AM63 °FClear.6 mph68%30.15 "Hg10 mi
12:50 AM63 °FClear.7 mph73%30.15 "Hg10 mi
12:20 AM63 °FClear.6 mph73%30.15 "Hg10 mi
11:50 PM
Mon, Jun 29
64 °FPassing clouds.6 mph68%30.15 "HgN/A
11:20 PM64 °FPassing clouds.7 mph68%30.15 "HgN/A
10:20 PM66 °FPassing clouds.5 mph60%30.15 "HgN/A
Weather by CustomWeather, © 2015

See weather overviewHow to use our weather pages